Location: Hohenfelde
(53.8441°N, 9.6220°E)
Time: 11:52:45
(UTC+00:00)

Resurs 1-4 Rocket - Pass Details

Date: 14 July 2020
Orbit: 800 x 814 km, 98.6° (Epoch: 09 August)

Event Time Altitude Azimuth Distance (km) Brightness Sun altitude
Rises 01:19:43 0° 15° (NNE) 3,353 7.2 -10.7°
Reaches altitude 10° 01:22:05 10° 15° (NNE) 2,415 6.1 -10.6°
Maximum altitude 01:27:26 88° 287° (WNW) 821 2.1 -10.2°
Enters shadow 01:32:21 12° 199° (SSW) 2,235 3.8 -9.9°
